Skip Page Navigation
NASA JPL Caltech
NASA Logo - Jet Propulsion Laboratory + View the NASA Portal
+ Near-Earth Object (NEO) Program
Search JPL
JPL Home Earth Solar System Stars & Galaxies Technology
JPL Solar System Dynamics
BODIES ORBITS EPHEMERIDES TOOLS PHYSICAL DATA DISCOVERY FAQ SITE MAP
JPL Small-Body Database Browser
Search: [ help ]  
784 Pickeringia (1914 UM)
Classification: Main-belt Asteroid          SPK-ID: 2000784
Ephemeris | Orbit Diagram | Orbital Elements | Physical Parameters | Discovery Circumstances ]

[ hide orbit diagram ]
Orbit Diagram
Note: Make sure you have Java enabled on your browser to see the applet. This applet is provided as a 3D orbit visualization tool. The applet was implemented using 2-body methods, and hence should not be used for determining accurate long-term trajectories (over several years or decades) or planetary encounter circumstances. For accurate long-term ephemerides, please instead use our Horizons system.
Orbit Viewer

Additional Notes: the orbits shown in the applet are color coded. The planets are white lines, and the asteroid/comet is a blue line. The bright white line indicates the portion of the orbit that is above the ecliptic plane, and the darker portion is below the ecliptic plane. Likewise for the asteroid/comet orbit, the light blue indicates the portion above the ecliptic plane, and the dark blue the portion below the ecliptic plane.

Orbit Viewer applet originally written and kindly provided by Osamu Ajiki (AstroArts), and further modified by Ron Baalke (JPL).


Orbital Elements at Epoch 2456400.5 (2013-Apr-18.0) TDB
Reference: MPO256866 (heliocentric ecliptic J2000)
 Element Value Uncertainty (1-sigma)   Units 
e 0.2416654 n/a  
a 3.0980507 n/a AU
q 2.3493590 n/a AU
i 12.28661 n/a deg
node 14.96189 n/a deg
peri 238.42059 n/a deg
M 346.63795 n/a deg
tp 2456474.4267821
(2013-Jun-30.92678210)
n/a JED
period 1991.7334211
5.45
n/a
n/a
d
yr
n 0.18074708 n/a deg/d
Q 3.8467424 n/a AU
  Orbit Determination Parameters
   # obs. used (total)      1106  
   first obs. used      1921-??-??  
   last obs. used      2013-03-13  
   # oppositions      33  
   planetary ephem.      DE403  
   condition code      0  
   fit RMS      0.51  
   data source      MPC:mpn  
   producer      MPCLINUX  

Additional Information
 T_jup = 3.143 

Ephemeris | Orbit Diagram | Orbital Elements | Physical Parameters | Discovery Circumstances ]

Physical Parameter Table
Parameter Symbol Value Units Sigma Reference Notes
absolute magnitude H 9.00 mag n/a IRAS-A-FPA-3-RDR-IMPS-V6.0 IRAS observations used: 5
diameter diameter 89.42 km 3.4 IRAS-A-FPA-3-RDR-IMPS-V6.0 IRAS observations used: 5
rotation period rot_per 13.17 h n/a Asteroid Lightcurve DataBase (Rev. 2013-May-01) Result based on less than full coverage, so that the period may be wrong by 30 percent or so.
Published Reference List:
[Hainaut-Rouelle, M.-C.; Hainaut, O.R.; Detal, A. (1995) Astron. Astrophys. Suppl. Ser. 112, 125-142.]
[Behrend, R. (2004) Observatoire de Geneve web site, http://obswww.unige.ch/~behrend/page_cou.html]
[Hanus, J.; Durech, J.; Broz, M.; Warner, B.D.; et al. (2011) Astron. Astrophys. 530, A134.]
geometric albedo albedo 0.0555   0.005 IRAS-A-FPA-3-RDR-IMPS-V6.0 IRAS observations used: 5
SMASSII spectral type spec_B C   n/a EAR-A-5-DDR-TAXONOMY-V4.0 based on a high-resolution spectrum by Xu et al. (1995) or Bus and Binzel (2002)

784 Pickeringia (1914 UM)          Discovered 1914-Mar-20 by Metcalf, J. H. at Winchester
Reference: DISCOVERY.DBLast Updated: 2003-08-29
Ephemeris | Orbit Diagram | Orbital Elements | Physical Parameters | Discovery Circumstances ]
ABOUT SSD CREDITS/AWARDS PRIVACY/COPYRIGHT GLOSSARY LINKS
FirstGov 2013-May-19 17:00 UT
(server date/time)  
NASA Home Page
Site Manager:   Donald K. Yeomans
Webmaster  Alan B. Chamberlin